Location: Devargunta
(16.7631°N, 80.9077°E)
Time: 18:58:06
(UTC+00:00)

Cosmos 1898 Rocket - Pass Details

Date: 19 January 2021
Orbit: 754 x 783 km, 74.0° (Epoch: 03 March)

Event Time Altitude Azimuth Distance (km) Brightness Sun altitude
Rises 13:44:19 0° 203° (SSW) 3,253 7.3 -18.7°
Reaches altitude 10° 13:46:45 10° 207° (SSW) 2,324 6.6 -19.3°
Maximum altitude 13:51:54 54° 284° (WNW) 933 4.2 -20.5°
Drops below altitude 10° 13:57:02 10° 2° (N) 2,312 5.8 -21.7°
Enters shadow 13:57:34 - 3° (N) 2,508 6.0 -21.8°
